WA4OPQ-1 Weather Reports


time (UTC)temp
C
wind
direction
speed
KPH
gust
KPH
rain 1hr
cm
rain 24hr
cm
rain mn
cm
humidity
%
barometer
mb
20260906022053 27 325 0.0 0.0 0.00 0.00 0.00 86 1008.5
20260906021213 27 325 0.0 0.0 0.00 0.00 0.00 87 1008.5
20260906020228 27 325 0.0 0.0 0.00 0.00 0.00 87 1008.5
20260906015233 27 325 0.0 0.0 0.00 0.00 0.00 87 1008.3
20260906014418 27 325 0.0 0.0 0.00 0.00 0.00 87 1008.5
20260906013513 27 325 0.0 0.0 0.00 0.00 0.00 87 1008.4
20260906012703 27 325 0.0 0.0 0.00 0.00 0.00 87 1008.4
20260906011825 27 325 0.0 0.0 0.00 0.00 0.00 86 1008.2
20260906010848 27 325 0.0 0.0 0.00 0.00 0.00 86 1008.3
20260906005933 27 325 0.0 0.0 0.00 0.00 0.00 86 1008.3
20260906004938 27 325 0.0 0.0 0.00 0.00 0.00 85 1007.8
20260906004013 27 325 0.0 0.0 0.00 0.00 0.00 85 1008.1
20260906003038 27 325 0.0 0.0 0.00 0.00 0.00 85 1008.1
20260906002043 28 325 0.0 0.0 0.00 0.00 0.00 84 1008.0
20260906001213 28 325 0.0 0.0 0.00 0.00 0.00 83 1008.0
20260906000256 28 325 0.0 0.0 0.00 0.00 0.00 82 1008.1
20260905235441 29 325 0.0 0.0 0.00 0.00 0.00 81 1008.0
20260905234443 30 325 0.0 0.0 0.00 0.00 0.00 79 1008.1
20260905233608 30 325 0.0 0.0 0.00 0.00 0.00 77 1008.1
20260905232708 30 325 0.0 0.0 0.00 0.00 0.00 77 1008.2
20260905231843 30 325 0.0 0.0 0.00 0.00 0.00 75 1008.0
20260905230848 31 325 0.0 0.0 0.00 0.00 0.00 73 1007.8
20260905225903 31 325 0.0 0.0 0.00 0.00 0.00 72 1007.7
20260905224953 31 325 0.0 0.0 0.00 0.00 0.00 72 1007.9
20260905224058 31 325 0.0 1.6 0.00 0.00 0.00 70 1007.6
20260905223123 32 333 0.0 0.0 0.00 0.00 0.00 70 1007.8
20260905222223 32 333 0.0 0.0 0.00 0.00 0.00 69 1007.9
20260905221248 32 324 0.0 0.0 0.00 0.00 0.00 68 1007.9
20260905220309 32 329 0.0 0.0 0.00 0.00 0.00 69 1007.6
20260905215338 32 329 0.0 0.0 0.00 0.00 0.00 67 1007.9
20260905214503 33 325 0.0 0.0 0.00 0.00 0.00 63 1007.8
20260905213528 33 317 0.0 0.0 0.00 0.00 0.00 64 1008.0
20260905212643 33 337 0.0 1.6 0.00 0.00 0.00 59 1007.8
20260905211653 33 337 0.0 1.6 0.00 0.00 0.00 63 1007.6
20260905210709 34 329 0.0 0.0 0.00 0.00 0.00 60 1007.7
20260905205858 33 326 0.0 1.6 0.00 0.00 0.00 61 1008.0
20260905204943 35 326 0.0 1.6 0.00 0.00 0.00 59 1007.9
20260905204038 35 326 0.0 0.0 0.00 0.00 0.00 56 1008.1
20260905203118 36 323 0.0 1.6 0.00 0.00 0.00 56 1008.1
20260905202237 35 318 1.6 1.6 0.00 0.00 0.00 55 1008.3
20260905201328 35 325 1.6 1.6 0.00 0.00 0.00 57 1008.4
20260905200433 36 313 0.0 1.6 0.00 0.00 0.00 57 1008.2
20260905195456 36 325 1.6 1.6 0.00 0.00 0.00 59 1008.2
20260905194653 36 305 0.0 1.6 0.00 0.00 0.00 52 1008.6
20260905193748 36 328 1.6 1.6 0.00 0.00 0.00 49 1008.9
20260905192833 35 341 3.2 3.2 0.00 0.00 0.00 55 1008.8
20260905192023 35 313 0.0 1.6 0.00 0.00 0.00 58 1009.2
20260905191038 35 316 0.0 0.0 0.00 0.00 0.00 56 1009.4
20260905190128 35 325 1.6 1.6 0.00 0.00 0.00 57 1009.5
20260905185218 36 327 1.6 1.6 0.00 0.00 0.00 56 1009.6
20260905184348 36 315 1.6 1.6 0.00 0.00 0.00 56 1009.7
20260905183513 36 319 0.0 1.6 0.00 0.00 0.00 57 1009.7
20260905182653 36 302 1.6 1.6 0.00 0.00 0.00 56 1009.8
20260905181808 36 309 0.0 1.6 0.00 0.00 0.00 59 1010.0
20260905180903 34 324 0.0 0.0 0.00 0.00 0.00 61 1010.3
20260905180043 36 320 1.6 1.6 0.00 0.00 0.00 57 1010.0
20260905175213 35 319 0.0 0.0 0.00 0.00 0.00 59 1010.1
20260905174313 35 312 0.0 1.6 0.00 0.00 0.00 60 1010.4
20260905173343 36 312 3.2 3.2 0.00 0.00 0.00 60 1010.2
20260905172408 35 322 1.6 1.6 0.00 0.00 0.00 58 1010.4
20260905171513 35 316 0.0 1.6 0.00 0.00 0.00 61 1010.6
20260905170658 35 332 3.2 3.2 0.00 0.00 0.00 61 1010.5
20260905165723 34 296 1.6 3.2 0.00 0.00 0.00 62 1010.6
20260905164913 34 300 1.6 1.6 0.00 0.00 0.00 63 1010.8
20260905163928 33 324 0.0 0.0 0.00 0.00 0.00 64 1011.1
20260905163108 33 322 0.0 1.6 0.00 0.00 0.00 64 1011.2
20260905162228 33 309 0.0 1.6 0.00 0.00 0.00 67 1011.2
20260905161423 34 320 0.0 1.6 0.00 0.00 0.00 70 1011.3
20260905160543 33 324 3.2 3.2 0.00 0.00 0.00 66 1011.3
20260905155545 32 327 0.0 0.0 0.00 0.00 0.00 69 1011.7
20260905154623 32 324 0.0 0.0 0.00 0.00 0.00 72 1011.8
20260905153633 32 320 0.0 0.0 0.00 0.00 0.00 74 1011.8
20260905152752 31 306 3.2 3.2 0.00 0.00 0.00 74 1011.9
20260905151823 30 325 0.0 0.0 0.00 0.00 0.00 80 1011.9
20260905150853 30 325 0.0 1.6 0.00 0.00 0.00 83 1012.0
20260905145903 30 323 0.0 0.0 0.00 0.00 0.00 86 1011.9
20260905145003 29 323 0.0 0.0 0.00 0.00 0.00 88 1012.1
20260905144203 28 319 0.0 0.0 0.00 0.00 0.00 88 1011.9
20260905143233 28 318 0.0 0.0 0.00 0.00 0.00 87 1012.3
20260905142418 28 313 0.0 0.0 0.00 0.00 0.00 89 1012.3
20260905141508 28 313 0.0 0.0 0.00 0.00 0.00 90 1012.3
20260905140633 27 312 0.0 0.0 0.00 0.00 0.00 90 1012.5
20260905135708 27 311 0.0 0.0 0.00 0.00 0.00 92 1012.5
20260905134828 26 303 0.0 0.0 0.00 0.00 0.00 93 1012.4
20260905133858 26 303 0.0 0.0 0.00 0.00 0.00 94 1012.4
20260905133038 25 303 0.0 0.0 0.00 0.00 0.00 95 1012.4
20260905132144 25 303 0.0 0.0 0.00 0.00 0.00 96 1012.4
20260905131143 25 303 0.0 0.0 0.00 0.00 0.00 97 1012.8
20260905130143 24 303 0.0 0.0 0.00 0.00 0.00 98 1012.5
20260905125333 23 303 0.0 0.0 0.00 0.00 0.00 98 1012.6
20260905124448 23 303 0.0 0.0 0.00 0.00 0.00 98 1012.7
20260905123448 23 303 0.0 0.0 0.00 0.00 0.00 99 1013.0
20260905122458 23 303 0.0 0.0 0.00 0.00 0.00 99 1012.4
20260905121633 23 303 0.0 0.0 0.00 0.00 0.00 99 1012.3
20260905120819 23 303 0.0 0.0 0.00 0.00 0.00 99 1012.5
20260905120018 22 303 0.0 0.0 0.00 0.00 0.00 99 1012.3
20260905115033 22 303 0.0 0.0 0.00 0.00 0.00 99 1012.4
20260905114127 22 303 0.0 0.0 0.00 0.00 0.00 99 1012.6
20260905113218 22 303 0.0 0.0 0.00 0.00 0.00 98 1012.0
20260905112238 23 303 0.0 0.0 0.00 0.00 0.00 98 1011.9
20260905111318 23 303 0.0 0.0 0.00 0.00 0.00 98 1011.9
20260905110333 22 303 0.0 0.0 0.00 0.00 0.00 99 1011.5
20260905105338 23 303 0.0 0.0 0.00 0.00 0.00 98 1011.5
20260905104538 22 303 0.0 0.0 0.00 0.00 0.00 98 1011.8
20260905103538 23 303 0.0 0.0 0.00 0.00 0.00 98 1011.4
20260905102608 23 303 0.0 0.0 0.00 0.00 0.00 97 1011.6
20260905101738 23 303 0.0 0.0 0.00 0.00 0.00 96 1011.5
20260905100818 23 303 0.0 0.0 0.00 0.00 0.00 97 1011.3
20260905095848 23 303 0.0 0.0 0.00 0.00 0.00 97 1011.3
20260905094946 23 303 0.0 0.0 0.00 0.00 0.00 96 1011.4
20260905093958 23 303 0.0 0.0 0.00 0.00 0.00 96 1011.5
20260905093143 23 303 0.0 0.0 0.00 0.00 0.00 96 1011.4
20260905092233 23 303 0.0 0.0 0.00 0.00 0.00 99 1011.3
20260905091248 22 303 0.0 0.0 0.00 0.00 0.00 99 1011.4
20260905090443 23 303 0.0 0.0 0.00 0.00 0.00 99 1011.5
20260905085518 23 303 0.0 0.0 0.00 0.00 0.00 99 1011.3
20260905084543 23 302 0.0 0.0 0.00 0.00 0.00 99 1011.3
20260905083618 23 303 0.0 0.0 0.00 0.00 0.00 99 1011.4
20260905082743 23 303 0.0 0.0 0.00 0.00 0.00 99 1011.4
20260905081838 23 303 0.0 0.0 0.00 0.00 0.00 99 1011.4
20260905080923 23 303 0.0 0.0 0.00 0.00 0.00 99 1011.4
20260905075952 23 302 0.0 0.0 0.00 0.00 0.00 99 1011.3
20260905075128 22 303 0.0 0.0 0.00 0.00 0.00 99 1011.3
20260905074313 23 303 0.0 0.0 0.00 0.00 0.00 99 1011.4
20260905073318 23 302 0.0 0.0 0.00 0.00 0.00 99 1011.4
20260905072338 23 302 0.0 1.6 0.00 0.00 0.00 99 1011.3
20260905071515 23 302 0.0 0.0 0.00 0.00 0.00 98 1011.4
20260905070538 23 302 0.0 0.0 0.00 0.00 0.00 98 1011.3
20260905065708 23 302 0.0 0.0 0.00 0.00 0.00 98 1011.0
20260905064803 23 302 0.0 0.0 0.00 0.00 0.00 99 1011.2
20260905063958 23 302 0.0 0.0 0.00 0.00 0.00 99 1010.9
20260905063008 23 302 0.0 0.0 0.00 0.00 0.00 99 1011.3
20260905062018 23 302 0.0 0.0 0.00 0.00 0.00 98 1011.2
20260905061133 23 302 0.0 0.0 0.00 0.00 0.00 98 1011.7
20260905060215 23 302 0.0 0.0 0.00 0.00 0.00 98 1011.3
20260905055238 23 302 1.6 1.6 0.00 0.00 0.00 97 1011.3
20260905054333 23 302 0.0 0.0 0.00 0.00 0.00 96 1011.5
20260905053403 24 302 0.0 0.0 0.00 0.00 0.00 96 1011.4
20260905052508 24 302 0.0 0.0 0.00 0.00 0.00 94 1011.5
20260905051508 24 302 0.0 0.0 0.00 0.00 0.00 93 1011.5
20260905050608 24 302 0.0 0.0 0.00 0.00 0.00 94 1011.6
20260905045803 25 302 0.0 0.0 0.00 0.00 0.00 92 1011.4
20260905044828 25 302 0.0 0.0 0.00 0.00 0.00 88 1011.4
20260905044028 25 302 0.0 0.0 0.00 0.00 0.00 90 1011.5
20260905043031 25 302 0.0 0.0 0.00 0.00 0.00 90 1011.3
20260905042158 25 302 0.0 0.0 0.00 0.00 0.00 91 1011.6
20260905041338 25 302 0.0 0.0 0.00 0.00 0.00 92 1011.5
20260905040403 26 302 0.0 0.0 0.00 0.00 0.00 86 1011.5
20260905035413 26 302 0.0 0.0 0.00 0.00 0.00 83 1011.5
20260905034423 24 302 0.0 0.0 0.00 0.00 0.00 89 1011.5
20260905033558 25 302 0.0 0.0 0.00 0.00 0.00 93 1011.7
20260905032733 25 302 0.0 0.0 0.00 0.00 0.00 92 1012.0
20260905031823 25 302 0.0 0.0 0.00 0.00 0.00 93 1011.8
20260905030848 25 302 0.0 0.0 0.00 0.00 0.00 93 1012.1
20260905025948 25 302 0.0 0.0 0.00 0.00 0.00 91 1012.0
20260905025128 25 302 0.0 0.0 0.00 0.00 0.00 90 1011.9
20260905024248 25 302 0.0 0.0 0.00 0.00 0.00 90 1012.2
20260905023428 25 302 0.0 0.0 0.00 0.00 0.00 89 1012.0